ATLAS 5 CENTAUR DEB, 46661

Orbit data source: Space-Track

ATLAS 5 CENTAUR DEB, 46661 is space debris in HEO originally from a launch on Wed, 17 Oct 2018 UTC launched from the Air Force Eastern Test Range (AFETR). Debris objects in space refer to the collection of defunct objects orbiting the Earth. Examples of debris include non-operational satellites, rocket bodies, and fragments generated from explosions, collisions, or faulty payload assembly.

Loading next visibility...
Identifier
46661, 2018-079CP
Orbit
HEO
Country
Flag of USUS
Related business
Flag of USUnited Launch Alliance/Lockheed Martin (US)
Manufacturer
ULA Decatur
Mission
Spacecraft
Bus & Motor
Unknown
Mass
Unknown
Launch date (UTC)
2018-10-17 (8 years ago)
Launch vehicle
Unknown
Launch site
Air Force Eastern Test Range (AFETR)
Object type
Payload
Rocket body
Debris
Shape & HBR
Unknown shape, 1.1 m
Radar Cross Section
RCS unknown

Expand to show TLE details & history
Last TLE update: 2 days ago

TLE from 2 days ago
0 ATLAS 5 CENTAUR DEB
1 46661U 18079CP  26170.97514596 -.00000110  00000-0  00000+0 0  9992
2 46661  13.5092  36.5212 4504055 308.2192  19.0767  1.82954699 38073
Epoch: 2026-06-19T23:24Z
TLE epoch observation values (Epoch: 2026-06-19T23:24:12.610Z)
Latitude
0.00009°
Longitude
137.25705°
Altitude
11,255.107 km
Speed
5.576 km/s
True Right ascension
02h 26m 01s
True Declination
0° 00' 00"
Sunlit
Object was in daylight at epoch
Visualization orbit readout
Latitude
Unknown
Longitude
Unknown
Altitude
Unknown
Speed
Unknown
Apparent Right ascension
Unknown
Apparent Declination
Unknown
Sunlit
N/A
Visualization observer readout
Local Sidereal Time
21:44:00
Azimuth
Unknown
Elevation
Unknown
Doppler factor
Unknown
Orbital elements
Apogee altitude
34,581.878 km
Perigee altitude
9,142.625 km
Semi-major axis
28,240.389 km
Eccentricity
0.45041
Inclination
13.5092°
RAAN
36.5212°
Arg. of periapsis
308.2192°
True anomaly
51.69755°
Mean anomaly
19.0767°
Eccentric anomaly
33.21171°
Mean motion
0.45734 °/min
Orbital period
787.16 mins
BSTAR
0
Loading maneuver chart data...
Computing Atmospheric mass density...

Documentation

Showing up to 5 results
|